Location: Walnut Point State Park
(39.6958°N, 88.0345°W)
Time: 06:52:51
(UTC-05:00)

Cosmos 1833 Rocket - Visible Passes

Search period start: 21 August 2017 00:00
Search period end: 31 August 2017 00:00
Orbit: 832 x 841 km, 71.0° (Epoch: 20 August)

Date Brightness Start Highest point End Pass type
(mag) Time Alt. Az. Time Alt. Az. Time Alt. Az.
21 Aug 3.9 04:01:08 17° SSE 04:04:51 38° ESE 04:10:01 10° NE visible
22 Aug 4.0 03:45:25 22° SSE 03:48:12 34° ESE 03:53:15 10° NE visible
22 Aug 3.6 05:27:09 11° WSW 05:32:05 33° WNW 05:37:09 10° N visible
23 Aug 4.1 03:29:39 26° SE 03:31:32 32° ESE 03:36:28 10° NE visible
23 Aug 3.5 05:11:23 16° WSW 05:15:21 35° WNW 05:20:31 10° N visible
24 Aug 4.1 03:13:50 27° ESE 03:14:54 29° ESE 03:19:41 10° NE visible
24 Aug 3.4 04:55:33 22° WSW 04:58:38 38° WNW 05:03:54 10° N visible
25 Aug 4.2 02:57:57 26° ESE 02:58:15 27° ESE 03:02:53 10° NE visible
25 Aug 3.2 04:39:40 29° WSW 04:41:55 41° WNW 04:47:15 10° N visible
26 Aug 4.4 02:42:01 24° E 02:42:01 24° E 02:46:04 10° NE visible
26 Aug 3.1 04:23:44 37° W 04:25:12 45° WNW 04:30:37 10° N visible
27 Aug 4.6 02:26:02 21° E 02:26:02 21° E 02:29:13 10° NE visible
27 Aug 3.0 04:07:45 46° W 04:08:30 49° WNW 04:13:58 10° NNE visible
28 Aug 4.9 02:10:01 18° ENE 02:10:01 18° ENE 02:12:22 10° NE visible
28 Aug 2.9 03:51:44 53° WNW 03:51:48 53° WNW 03:57:19 10° NNE visible
29 Aug 5.1 01:53:58 15° ENE 01:53:58 15° ENE 01:55:29 10° ENE visible
29 Aug 3.0 03:35:41 55° NW 03:35:41 55° NW 03:40:40 10° NNE visible
30 Aug 5.3 01:37:53 12° ENE 01:37:53 12° ENE 01:38:34 10° ENE visible
30 Aug 3.3 03:19:35 50° NNW 03:19:35 50° NNW 03:24:00 10° NNE visible
30 Aug 4.9 05:02:51 10° NW 05:03:30 10° NW 05:04:08 10° NW visible
